timestamp,wind_dir_avg,wind_spd_avg,wind_spd_max_dir,wind_spd_gust,battery_voltage,lat,long
2022-06-06 00:04:01+00:00,9.0,2.79,16.0,3.3,12.97,47.59359,-54.27349
2022-06-06 00:14:01+00:00,12.0,3.45,16.0,3.85,12.49,47.59359,-54.27349
2022-06-06 00:24:01+00:00,20.0,3.58,23.0,3.75,12.49,47.59359,-54.27349
2022-06-06 00:34:01+00:00,20.0,3.13,21.0,3.3,12.49,47.59359,-54.27349
2022-06-06 00:44:01+00:00,27.0,3.21,27.0,3.41,12.49,47.59359,-54.27349
2022-06-06 00:54:01+00:00,22.0,2.78,27.0,2.96,12.49,47.59359,-54.27349
2022-06-06 01:04:01+00:00,14.0,2.64,15.0,2.94,12.49,47.59359,-54.27349
2022-06-06 01:14:00+00:00,12.0,2.67,13.0,2.93,12.41,47.59359,-54.27349
2022-06-06 01:24:00+00:00,28.0,3.12,30.0,3.31,12.41,47.59359,-54.27349
2022-06-06 01:34:00+00:00,27.0,4.01,26.0,4.31,12.41,47.59359,-54.27349
2022-06-06 01:44:00+00:00,29.0,3.92,29.0,4.25,12.41,47.59359,-54.27349
2022-06-06 01:54:00+00:00,24.0,3.68,28.0,3.98,12.41,47.59359,-54.27349
2022-06-06 02:04:00+00:00,24.0,3.39,24.0,3.87,12.41,47.59359,-54.27349
2022-06-06 02:14:00+00:00,25.0,4.5,24.0,4.94,12.41,47.59359,-54.27349
2022-06-06 02:24:00+00:00,29.0,3.64,28.0,3.96,12.41,47.59359,-54.27349
2022-06-06 02:34:00+00:00,26.0,1.73,27.0,2.01,12.41,47.59359,-54.27349
2022-06-06 02:44:00+00:00,351.0,0.85,354.0,1.04,12.41,47.59359,-54.27349
2022-06-06 02:54:00+00:00,346.0,0.34,0.0,0.6,12.41,47.59359,-54.27349
2022-06-06 03:04:00+00:00,14.0,0.15,9.0,0.25,12.41,47.59359,-54.27349
2022-06-06 03:14:00+00:00,295.0,0.25,319.0,0.52,12.33,47.59359,-54.27349
2022-06-06 03:24:00+00:00,229.0,0.76,226.0,0.93,12.33,47.59359,-54.27349
2022-06-06 03:34:00+00:00,213.0,1.04,223.0,1.27,12.33,47.59359,-54.27349
2022-06-06 03:44:00+00:00,217.0,1.53,214.0,1.73,12.33,47.59359,-54.27349
2022-06-06 03:54:00+00:00,236.0,0.73,236.0,0.82,12.33,47.59359,-54.27349
2022-06-06 04:04:00+00:00,238.0,0.67,264.0,1.05,12.33,47.59359,-54.27349
2022-06-06 04:14:01+00:00,243.0,0.64,240.0,0.85,12.33,47.59359,-54.27349
2022-06-06 04:24:01+00:00,272.0,0.65,291.0,1.08,12.33,47.59359,-54.27349
2022-06-06 04:34:01+00:00,214.0,1.61,216.0,1.71,12.33,47.59359,-54.27349
2022-06-06 04:44:01+00:00,218.0,1.68,217.0,1.82,12.33,47.59359,-54.27349
2022-06-06 04:54:01+00:00,226.0,2.04,226.0,2.21,12.33,47.59359,-54.27349
2022-06-06 05:04:01+00:00,216.0,2.72,216.0,2.88,12.33,47.59359,-54.27349
2022-06-06 05:14:00+00:00,208.0,2.62,208.0,3.18,12.41,47.59359,-54.27349
2022-06-06 05:24:00+00:00,217.0,2.79,217.0,2.95,12.41,47.59359,-54.27349
2022-06-06 05:34:00+00:00,215.0,2.53,222.0,2.86,12.41,47.59359,-54.27349
2022-06-06 05:44:00+00:00,213.0,2.72,212.0,2.86,12.41,47.59359,-54.27349
2022-06-06 05:54:00+00:00,218.0,3.31,217.0,3.43,12.41,47.59359,-54.27349
2022-06-06 06:04:00+00:00,220.0,3.27,220.0,3.52,12.41,47.59359,-54.27349
2022-06-06 06:14:00+00:00,220.0,2.89,223.0,3.09,12.33,47.59359,-54.27349
2022-06-06 06:24:00+00:00,228.0,3.14,230.0,3.37,12.33,47.59359,-54.27349
2022-06-06 06:34:00+00:00,224.0,4.09,221.0,4.33,12.33,47.59359,-54.27349
2022-06-06 06:44:00+00:00,231.0,3.48,226.0,3.64,12.33,47.59359,-54.27349
2022-06-06 06:54:00+00:00,315.0,0.01,233.0,0.0,12.33,47.59359,-54.27349
2022-06-06 07:04:00+00:00,232.0,3.59,226.0,3.79,12.33,47.59359,-54.27349
2022-06-06 07:14:01+00:00,227.0,3.44,224.0,3.97,12.25,47.59359,-54.27349
2022-06-06 07:24:01+00:00,234.0,3.15,230.0,3.6,12.25,47.59359,-54.27349
2022-06-06 07:34:01+00:00,236.0,3.06,238.0,3.27,12.25,47.59359,-54.27349
2022-06-06 07:44:01+00:00,233.0,3.37,233.0,3.51,12.25,47.59359,-54.27349
2022-06-06 07:54:01+00:00,232.0,3.28,228.0,3.71,12.25,47.59359,-54.27349
2022-06-06 08:04:01+00:00,232.0,2.97,232.0,3.42,12.25,47.59359,-54.27349
2022-06-06 08:14:01+00:00,199.0,1.54,187.0,2.13,12.17,47.59359,-54.27349
2022-06-06 08:24:01+00:00,165.0,0.66,167.0,1.05,12.17,47.59359,-54.27349
2022-06-06 08:34:01+00:00,200.0,0.98,199.0,1.47,12.17,47.59359,-54.27349
2022-06-06 08:44:01+00:00,189.0,1.56,188.0,1.62,12.17,47.59359,-54.27349
2022-06-06 08:54:01+00:00,203.0,2.38,206.0,2.71,12.17,47.59359,-54.27349
2022-06-06 09:04:01+00:00,209.0,3.37,211.0,3.57,12.17,47.59359,-54.27349
2022-06-06 09:14:00+00:00,206.0,4.49,208.0,4.74,12.33,47.59359,-54.27349
2022-06-06 09:24:00+00:00,205.0,4.97,213.0,5.39,12.33,47.59359,-54.27349
2022-06-06 09:34:00+00:00,216.0,4.16,223.0,4.51,12.33,47.59359,-54.27349
2022-06-06 09:44:00+00:00,220.0,3.63,220.0,3.85,12.33,47.59359,-54.27349
2022-06-06 09:54:00+00:00,214.0,3.7,225.0,4.6,12.33,47.59359,-54.27349
2022-06-06 10:04:00+00:00,219.0,3.31,218.0,3.84,12.33,47.59359,-54.27349
2022-06-06 10:14:01+00:00,227.0,3.34,227.0,3.69,12.57,47.59359,-54.27349
2022-06-06 10:24:01+00:00,217.0,2.74,220.0,3.2,12.57,47.59359,-54.27349
2022-06-06 10:34:01+00:00,215.0,4.79,229.0,5.79,12.57,47.59359,-54.27349
2022-06-06 10:44:01+00:00,213.0,4.26,222.0,4.78,12.57,47.59359,-54.27349
2022-06-06 10:54:01+00:00,226.0,3.59,226.0,3.9,12.57,47.59359,-54.27349
2022-06-06 11:04:01+00:00,221.0,2.68,236.0,3.71,12.57,47.59359,-54.27349
2022-06-06 11:14:00+00:00,226.0,2.63,232.0,2.99,13.44,47.59359,-54.27349
2022-06-06 11:24:00+00:00,315.0,0.01,224.0,0.0,13.44,47.59359,-54.27349
2022-06-06 11:34:00+00:00,315.0,0.01,229.0,0.0,13.44,47.59359,-54.27349
2022-06-06 11:44:00+00:00,233.0,6.38,231.0,6.76,13.44,47.59359,-54.27349
2022-06-06 11:54:00+00:00,226.0,7.23,225.0,8.01,13.44,47.59359,-54.27349
2022-06-06 12:04:00+00:00,226.0,7.08,225.0,7.77,13.44,47.59359,-54.27349
2022-06-06 12:14:00+00:00,226.0,6.61,228.0,7.2,13.44,47.59359,-54.27349
2022-06-06 12:24:00+00:00,315.0,0.01,226.0,0.0,13.44,47.59359,-54.27349
2022-06-06 12:34:00+00:00,315.0,0.01,226.0,0.0,13.44,47.59359,-54.27349
2022-06-06 12:44:00+00:00,315.0,0.01,226.0,0.0,13.44,47.59359,-54.27349
2022-06-06 12:54:00+00:00,315.0,0.01,216.0,0.0,13.44,47.59359,-54.27349
2022-06-06 13:04:00+00:00,217.0,4.76,216.0,5.45,13.44,47.59359,-54.27349
2022-06-06 13:14:00+00:00,223.0,4.96,239.0,6.46,13.53,47.59359,-54.27349
2022-06-06 13:24:00+00:00,215.0,4.5,225.0,5.17,13.53,47.59359,-54.27349
2022-06-06 13:34:00+00:00,214.0,4.89,225.0,5.88,13.53,47.59359,-54.27349
2022-06-06 13:44:00+00:00,227.0,4.71,240.0,6.66,13.53,47.59359,-54.27349
2022-06-06 13:54:00+00:00,221.0,4.19,230.0,5.39,13.53,47.59359,-54.27349
2022-06-06 14:04:00+00:00,212.0,3.59,228.0,4.61,13.53,47.59359,-54.27349
2022-06-06 14:14:01+00:00,193.0,3.77,203.0,4.1,13.68,47.59359,-54.27349
2022-06-06 14:24:01+00:00,222.0,5.36,232.0,6.34,13.68,47.59359,-54.27349
2022-06-06 14:34:01+00:00,233.0,6.34,233.0,6.98,13.68,47.59359,-54.27349
2022-06-06 14:44:01+00:00,230.0,6.79,232.0,7.47,13.68,47.59359,-54.27349
2022-06-06 14:54:01+00:00,226.0,7.56,227.0,8.17,13.68,47.59359,-54.27349
2022-06-06 15:04:01+00:00,229.0,7.8,230.0,8.29,13.68,47.59359,-54.27349
2022-06-06 15:14:01+00:00,225.0,7.35,228.0,8.37,14.16,47.59359,-54.27349
2022-06-06 15:24:01+00:00,224.0,7.55,226.0,8.51,14.16,47.59359,-54.27349
2022-06-06 15:34:01+00:00,224.0,6.08,238.0,7.73,14.16,47.59359,-54.27349
2022-06-06 15:44:01+00:00,217.0,6.31,229.0,7.87,14.16,47.59359,-54.27349
2022-06-06 15:54:01+00:00,216.0,5.84,216.0,6.19,14.16,47.59359,-54.27349
2022-06-06 16:04:01+00:00,213.0,6.88,224.0,7.88,14.16,47.59359,-54.27349
2022-06-06 16:14:00+00:00,221.0,6.06,234.0,8.06,13.6,47.59359,-54.27349
2022-06-06 16:24:00+00:00,216.0,6.05,231.0,7.76,13.6,47.59359,-54.27349
2022-06-06 16:34:00+00:00,217.0,6.73,217.0,7.44,13.6,47.59359,-54.27349
2022-06-06 16:44:00+00:00,218.0,6.68,223.0,7.51,13.6,47.59359,-54.27349
2022-06-06 16:54:00+00:00,220.0,7.3,218.0,8.27,13.6,47.59359,-54.27349
2022-06-06 17:04:00+00:00,221.0,8.0,221.0,8.66,13.6,47.59359,-54.27349
2022-06-06 17:14:00+00:00,219.0,7.11,222.0,7.93,14.24,47.59359,-54.27349
2022-06-06 17:24:00+00:00,218.0,7.22,221.0,8.44,14.24,47.59359,-54.27349
2022-06-06 17:34:00+00:00,224.0,6.72,235.0,8.07,14.24,47.59359,-54.27349
2022-06-06 17:44:00+00:00,214.0,6.33,223.0,7.28,14.24,47.59359,-54.27349
2022-06-06 17:54:00+00:00,221.0,8.26,223.0,8.72,14.24,47.59359,-54.27349
2022-06-06 18:04:00+00:00,219.0,8.07,218.0,8.57,14.24,47.59359,-54.27349
2022-06-06 18:14:00+00:00,212.0,7.81,213.0,7.82,14.0,47.59359,-54.27349
2022-06-06 18:24:00+00:00,220.0,8.88,218.0,9.07,14.0,47.59359,-54.27349
2022-06-06 18:34:00+00:00,208.0,8.23,221.0,9.43,14.0,47.59359,-54.27349
2022-06-06 18:44:00+00:00,217.0,8.93,222.0,9.86,14.0,47.59359,-54.27349
2022-06-06 18:54:00+00:00,218.0,8.84,221.0,9.68,14.0,47.59359,-54.27349
2022-06-06 19:04:00+00:00,221.0,8.03,226.0,9.04,14.0,47.59359,-54.27349
2022-06-06 19:14:00+00:00,213.0,9.46,214.0,10.57,13.6,47.59359,-54.27349
2022-06-06 19:24:00+00:00,209.0,9.06,208.0,10.05,13.6,47.59359,-54.27349
2022-06-06 19:34:00+00:00,215.0,8.22,214.0,8.38,13.6,47.59359,-54.27349
2022-06-06 19:44:00+00:00,219.0,8.53,222.0,9.39,13.6,47.59359,-54.27349
2022-06-06 19:54:00+00:00,222.0,8.66,223.0,9.51,13.6,47.59359,-54.27349
2022-06-06 20:04:00+00:00,221.0,8.43,223.0,9.13,13.6,47.59359,-54.27349
2022-06-06 20:14:00+00:00,214.0,8.4,222.0,9.59,13.68,47.59359,-54.27349
2022-06-06 20:24:00+00:00,211.0,8.42,220.0,9.7,13.68,47.59359,-54.27349
2022-06-06 20:34:00+00:00,208.0,8.02,213.0,8.47,13.68,47.59359,-54.27349
2022-06-06 20:44:00+00:00,206.0,8.64,213.0,9.2,13.68,47.59359,-54.27349
2022-06-06 20:54:00+00:00,315.0,0.01,200.0,0.0,13.68,47.59359,-54.27349
2022-06-06 21:04:00+00:00,211.0,8.4,212.0,8.41,13.68,47.59359,-54.27349
2022-06-06 21:14:00+00:00,212.0,10.31,211.0,10.85,13.68,47.59359,-54.27349
2022-06-06 21:24:00+00:00,214.0,9.18,215.0,9.9,13.68,47.59359,-54.27349
2022-06-06 21:34:00+00:00,214.0,8.99,215.0,9.0,13.68,47.59359,-54.27349
2022-06-06 21:44:00+00:00,203.0,6.5,201.0,7.23,13.68,47.59359,-54.27349
2022-06-06 21:54:00+00:00,205.0,6.12,206.0,6.62,13.68,47.59359,-54.27349
2022-06-06 22:04:00+00:00,315.0,0.01,205.0,0.0,13.68,47.59359,-54.27349
2022-06-06 22:14:01+00:00,204.0,6.26,204.0,6.74,13.37,47.59359,-54.27349
2022-06-06 22:24:01+00:00,205.0,5.87,205.0,6.39,13.37,47.59359,-54.27349
2022-06-06 22:34:01+00:00,207.0,4.86,208.0,4.87,13.37,47.59359,-54.27349
2022-06-06 22:44:01+00:00,315.0,0.01,217.0,0.0,13.37,47.59359,-54.27349
2022-06-06 22:54:01+00:00,216.0,4.41,216.0,4.76,13.37,47.59359,-54.27349
2022-06-06 23:04:01+00:00,207.0,6.11,211.0,6.35,13.37,47.59359,-54.27349
2022-06-06 23:14:00+00:00,315.0,0.01,215.0,0.0,13.05,47.59359,-54.27349
2022-06-06 23:24:00+00:00,315.0,0.01,216.0,0.0,13.05,47.59359,-54.27349
2022-06-06 23:34:00+00:00,217.0,5.1,218.0,5.11,13.05,47.59359,-54.27349
2022-06-06 23:44:00+00:00,315.0,0.01,221.0,0.0,13.05,47.59359,-54.27349
2022-06-06 23:54:00+00:00,218.0,4.16,217.0,4.23,13.05,47.59359,-54.27349
